This demonstration page uses our WeatherBlox Daily Observations layout. Learn more.

41.55636, -103.73856

Hourly Observations for January 21, 2019

Temp ( °F °C ) Dew Point ( °F °C ) Humidity (%) Winds ( mph kmh ) Pressure ( in mb ) Visibility ( mi km ) Precip ( " mm )
12:53 am 00:53 Clear 30 -1.1 29 -1.7 96 96 ESE 14 22 29.71 1006 10 16.09344 0 0
1:53 am 01:53 Clear 29 -1.7 28 -2.2 96 96 ESE 13 20 29.68 1005 10 16.09344 0 0
2:53 am 02:53 Clear 28 -2.2 28 -2.2 100 100 ESE 13 20 29.68 1005 10 16.09344 0 0
3:53 am 03:53 Clear 27 -2.8 27 -2.8 100 100 ESE 10 17 29.65 1004 10 16.09344 0 0
4:53 am 04:53 Clear 27 -2.8 27 -2.8 100 100 ESE 12 19 29.65 1004 10 16.09344 0 0
5:53 am 05:53 Clear 26 -3.3 26 -3.3 100 100 ESE 9 15 29.65 1004 9 14.484096 0 0
6:31 am 06:31 Partly Cloudy 26 -3.3 26 -3.3 100 100 ESE 9 15 29.74 1007 8 12.874752 0 0
6:41 am 06:41 Mostly Cloudy with Mist and Fog 27 -2.8 27 -2.8 100 100 ESE 15 24 29.74 1007 5 8.04672 0 0
6:53 am 06:53 Cloudy with Mist and Fog 27 -2.8 27 -2.8 100 100 ESE 13 20 29.62 1003 4 6.437376 0 0
7:06 am 07:06 Cloudy with Mist and Fog 28 -2.2 28 -2.2 100 100 ESE 14 22 29.74 1007 2 3.218688 0 0
7:15 am 07:15 Cloudy with Mist and Fog 28 -2.2 28 -2.2 100 100 ESE 15 24 29.74 1007 1.75 2.816352 0 0
7:24 am 07:24 Cloudy with Mist and Fog 28 -2 28 -2 100 100 ESE 13 20 29.74 1007 2.5 4.02336 0 0
7:31 am 07:31 Cloudy with Mist and Fog 28 -2.2 28 -2.2 100 100 ESE 13 20 29.74 1007 3 4.828032 0 0
7:36 am 07:36 Cloudy with Mist and Fog 28 -2 28 -2 100 100 ESE 12 19 29.74 1007 2 3.218688 0 0
7:45 am 07:45 Cloudy with Mist and Fog 28 -2.2 28 -2.2 100 100 ESE 13 20 29.74 1007 1.75 2.816352 0 0
7:53 am 07:53 Cloudy with Mist and Fog 28 -2.2 28 -2.2 100 100 ESE 12 19 29.62 1003 2.5 4.02336 0 0
8:04 am 08:04 Cloudy with Mist and Fog 28 -2 28 -2 100 100 ESE 13 20 29.74 1007 1.25 2.01168 0 0
8:15 am 08:15 Cloudy with Mist and Fog 28 -2.2 28 -2.2 100 100 ESE 16 26 29.74 1007 0.75 1.207008 0 0
8:26 am 08:26 Cloudy with Mist and Fog 28 -2 28 -2 100 100 ESE 13 20 29.74 1007 1.75 2.816352 0 0
8:34 am 08:34 Cloudy with Mist and Fog 28 -2 28 -2 100 100 SE 13 20 29.71 1006 2.5 4.02336 0 0
8:53 am 08:53 Cloudy with Mist and Fog 29 -1.7 29 -1.7 100 100 ESE 14 22 29.62 1003 3 4.828032 0 0
9:04 am 09:04 Cloudy with Mist and Fog 28 -2 28 -2 100 100 ESE 14 22 29.71 1006 2.5 4.02336 0 0
9:14 am 09:14 Cloudy with Mist and Fog 29 -1.7 29 -1.7 100 100 ESE 14 22 29.68 1005 4 6.437376 0 0
9:53 am 09:53 Cloudy 29 -1.7 29 -1.7 100 100 ESE 13 20 29.59 1002 8 12.874752 0 0
10:40 am 10:40 Cloudy 30 -1 30 -1 100 100 ESE 13 20 29.68 1005 10 16.09344 0 0
10:53 am 10:53 Cloudy 32 0 31 -0.6 96 96 ESE 13 20 29.56 1001 10 16.09344 0 0
11:53 am 11:53 Mostly Cloudy 37 2.8 31 -0.6 79 79 ESE 14 22 29.53 1000 10 16.09344 0 0
12:01 pm 12:01 Mostly Cloudy 37 2.8 31 -0.6 79 79 E 13 20 29.56 1001 10 16.09344 0 0
12:09 pm 12:09 Partly Cloudy 37 2.8 30 -1.1 76 76 ESE 10 17 29.56 1001 10 16.09344 0 0
12:53 pm 12:53 Sunny 39 3.9 30 -1.1 70 70 ESE 12 19 29.47 998 10 16.09344 0 0
1:53 pm 13:53 Sunny 36 2.2 29 -1.7 76 76 E 10 17 29.47 998 10 16.09344 0 0
2:53 pm 14:53 Cloudy 35 1.7 29 -1.7 78 78 NNE 9 15 29.5 999 10 16.09344 0 0
3:53 pm 15:53 Cloudy 35 1.7 29 -1.7 78 78 SE 3 6 29.56 1001 10 16.09344 0 0
4:53 pm 16:53 Cloudy 32 0 28 -2.2 85 85 SE 5 7 29.53 1000 10 16.09344 0 0
5:53 pm 17:53 Cloudy 32 0 28 -2.2 85 85 SSE 6 9 29.59 1002 10 16.09344 0 0
6:44 pm 18:44 Cloudy 30 -1 28 -2 93 93 W 6 9 29.71 1006 10 16.09344 0 0
6:53 pm 18:53 Cloudy with Light Snow 31 -0.6 29 -1.7 92 92 Calm 29.65 1004 5 8.04672 0.001 0.001
7:19 pm 19:19 Cloudy with Light Snow 30 -1.1 29 -1.7 96 96 ESE 6 9 29.71 1006 3 4.828032 0.01 0.254
7:29 pm 19:29 Cloudy with Light Snow 30 -1.1 30 -1.1 100 100 ESE 5 7 29.74 1007 1.75 2.816352 0.01 0.254
7:37 pm 19:37 Cloudy with Light Snow 30 -1.1 30 -1.1 100 100 E 7 11 29.74 1007 1.75 2.816352 0.02 0.508
7:53 pm 19:53 Windy with Snow Likely 29 -1.7 28 -2.2 96 96 N 20 31 29.71 1006 1.25 2.01168 0.02 0.508
8:02 pm 20:02 Cloudy with Light Snow 27 -3 25 -4 93 93 N 16 26 29.85 1011 1 1.609344 0 0
8:07 pm 20:07 Cloudy with Light Snow 26 -3.3 25 -3.9 96 96 N 18 30 29.85 1011 0.75 1.207008 0.001 0.001
8:40 pm 20:40 Mostly Cloudy with Scattered Snow Showers 25 -4 21 -6 86 86 N 15 24 29.85 1011 1 1.609344 0 0
8:53 pm 20:53 Cloudy with Light Snow 24 -4.4 23 -5 96 96 N 9 15 29.8 1009 1.25 2.01168 0.04 1.016
9:34 pm 21:34 Cloudy with Light Snow 23 -5 21 -6 93 93 N 8 13 29.94 1014 1.25 2.01168 0 0
9:53 pm 21:53 Cloudy with Light Snow 22 -5.6 21 -6.1 96 96 NW 14 22 29.85 1011 1.75 2.816352 0.04 1.016
10:02 pm 22:02 Cloudy with Light Snow 21 -6 19 -7 93 93 N 13 20 30 1016 1.5 2.414016 0 0
10:12 pm 22:12 Cloudy with Light Snow 21 -6 19 -7 93 93 N 10 17 30 1016 2.5 4.02336 0 0
10:50 pm 22:50 Cloudy with Light Snow 19 -7 18 -8 93 93 NNW 15 24 30.06 1018 1.75 2.816352 0 0
10:53 pm 22:53 Cloudy with Light Snow 20 -6.7 17 -8.3 89 89 NNW 14 22 29.91 1013 2 3.218688 0.01 0.254
11:04 pm 23:04 Cloudy with Light Snow 19 -7 16 -9 86 86 NNW 16 26 30.06 1018 3 4.828032 0 0
11:31 pm 23:31 Cloudy with Light Snow 19 -7.2 15 -9.4 84 84 NNW 16 26 30.06 1018 4 6.437376 0.001 0.001
11:53 pm 23:53 Cloudy with Light Snow 19 -7.2 15 -9.4 84 84 N 14 22 29.91 1013 6 9.656064 0.001 0.001

Powered by AerisWeather